Starlink 4552

operational
NORAD ID: 53420 Int'l Des: 2022-097 Owner: SPXS Country: US Constellation: starlink
LEOCIRCULAR

关于 Starlink 4552

正在加载描述...

实时位置

正在加载3D地球...

即将过境

高度历史

Altitude vs Time

uPlot chart will show altitude changes over time

两行轨道根数

1 53420U 22097AJ 26063.43986103 -.00000818 00000-0 -33343-4 0 9994
2 53420 53.2170 137.6904 0001295 83.9348 276.1791 15.08827577197837
Epoch: Mar 4, 2026 • Age: 19 hours

当前状态

高度 542.6 km
速度 7.60 km/s
星下点 39.75°N, 90.75°E
发射日期 Aug 10, 2022
运行时间 3.5 years
类型 internet

技术详情

分类 Payload
质量 297.00 kg
干质量 275.00 kg
总质量 297.00 kg
长度 0.20 m
直径 2.80 m
跨度 9.00 m
形状 Box + pan
制造商 SPXS
平台类型 Starlink
阶段状态 In Orbit
所有者/国家 SPXS/US

大型星座

Loading constellations...